Location: Frankfurt/Main
(50.1219°N, 8.6792°E)
Time: 19:20:56
(UTC+01:00)

ISS - Visible Passes

Search period start: 14 December 2025 00:00
Search period end: 24 December 2025 00:00
Orbit: 416 x 420 km, 51.6° (Epoch: 13 December)

Date Brightness Start Highest point End Pass type
(mag) Time Alt. Az. Time Alt. Az. Time Alt. Az.
14 Dec -0.8 06:26:50 10° S 06:29:10 18° SE 06:31:30 10° E visible
15 Dec -0.6 05:40:07 10° SSE 05:41:23 12° SE 05:42:39 10° ESE visible
15 Dec -2.8 07:14:16 10° SW 07:17:32 50° SSE 07:20:50 10° ENE visible
16 Dec -2.2 06:26:42 11° SW 06:29:36 35° SSE 06:32:44 10° E visible
17 Dec -1.8 05:41:17 24° SSE 05:41:40 25° SE 05:44:31 10° E visible
17 Dec -3.7 07:14:47 10° WSW 07:18:09 87° S 07:21:34 10° ENE visible
18 Dec -0.3 04:55:38 12° ESE 04:55:38 12° ESE 04:56:04 10° E visible
18 Dec -3.5 06:28:35 29° SW 06:30:06 67° SSE 06:33:28 10° ENE visible
19 Dec -2.5 05:42:44 41° ESE 05:42:44 41° ESE 05:45:20 10° ENE visible
19 Dec -3.7 07:15:40 12° W 07:18:48 70° N 07:22:10 10° ENE visible
20 Dec -0.3 04:56:46 12° E 04:56:46 12° E 04:57:07 10° E visible
20 Dec -3.9 06:29:41 44° W 06:30:38 79° NNW 06:34:01 10° ENE visible
21 Dec -2.4 05:43:36 39° ENE 05:43:36 39° ENE 05:45:53 10° ENE visible
21 Dec -3.7 07:16:32 14° W 07:19:22 66° N 07:22:44 10° E visible
22 Dec -0.3 04:57:26 12° ENE 04:57:26 12° ENE 04:57:41 10° ENE visible
22 Dec -3.7 06:30:21 46° WNW 06:31:09 65° N 06:34:31 10° E visible
23 Dec -2.3 05:44:07 36° ENE 05:44:07 36° ENE 05:46:17 10° ENE visible
23 Dec -3.8 07:17:02 14° WNW 07:19:51 80° NNE 07:23:13 10° E visible
